sat.trackr.live / text

‹ back to catalog

STARLINK-36126

NORAD 66866 · 2025-281U

PAYLOAD ACTIVE UNKNOWN

§ Identity

Operator
Country
US
Launch date
2025-12-02
Launch site
AFETR
Launch vehicle
Mass (kg)
RCS (m²)

Purposes: comms

External: N2YO · Heavens-Above · Gunter

§ Orbital elements

Epoch: 2026-09-20T21:16:25.925952Z

Period
94.27 min
Inclination
43.0034°
Eccentricity
0.0001780
Mean motion
15.27589014 rev/d
Perigee alt
481.8 km
Apogee alt
484.2 km
Semi-major
6,861.2 km
B*
3.2524e-4
RAAN
321.5122°
Arg perigee
284.8351°
Mean anomaly
75.2304°
Rev number
4,602

§ Raw data

STARLINK-361261 66866U 25281U   26263.88641118  .00008701  00000+0  32524-3 0  99902 66866  43.0034 321.5122 0001780 284.8351  75.2304 15.27589014 46026

JSON: /api/v1/satellites/66866 · /tle

For live sub-satellite position, see the globe view (requires WebGL).

§ Visibility from observer

Set your observer location to see the next 7 days of passes ≥ 10°. The values pass through the URL so the page stays shareable.

No JS? Fill the form by hand. The geolocation button needs JavaScript.